Location: Unspecified
(0.0000°N, 0.0000°E)
Time: 18:51:39
(UTC+00:00)

THORAD DELTA 1 DEB - Pass Details

Date: 21 February 2026
Orbit: 1442 x 1568 km, 101.4° (Epoch: 22 February)

Event Time Altitude Azimuth Distance (km) Brightness Sun altitude
Exits shadow 19:37:37 21° 114° (ESE) 2,958 ? -20.7°
Drops below altitude 10° 19:43:01 10° 152° (SSE) 3,743 ? -22.0°
Sets 19:46:43 0° 166° (SSE) 4,714 ? -22.9°
